IZ2WMD-13 Weather Reports


time (UTC)temp
C
wind
direction
speed
KPH
gust
KPH
rain 1hr
cm
rain 24hr
cm
rain mn
cm
humidity
%
barometer
mb
20260506110914 15 0.0 0.0 0.00 0.00 0.00 84 1008.3
20260506104909 15 0.0 0.0 0.00 0.00 0.00 84 1008.3
20260506102904 15 0.0 0.0 0.00 0.00 0.00 83 1008.4
20260506100900 15 0.0 0.0 0.00 0.00 0.00 81 1008.4
20260506094855 17 0.0 0.0 0.00 0.00 0.00 86 1008.3
20260506092850 15 0.0 0.0 0.00 0.00 0.00 99 1008.4
20260506090845 12 0.0 0.0 0.00 0.00 0.00 100 1008.5
20260506084840 12 0.0 0.0 0.00 0.00 0.00 100 1008.4
20260506082835 13 0.0 0.0 0.00 0.00 0.00 97 1008.3
20260506080831 13 0.0 0.0 0.00 0.00 0.00 97 1008.0
20260506072820 13 0.0 0.0 0.00 0.00 0.00 100 1008.3
20260506070815 12 0.0 0.0 0.00 0.00 0.00 100 1008.8
20260506050746 12 0.0 0.0 0.00 0.00 0.00 100 1009.3
20260506044741 12 0.0 0.0 0.00 0.00 0.00 100 1009.3
20260506042736 12 0.0 0.0 0.00 0.00 0.00 100 1009.3
20260506040731 12 0.0 0.0 0.00 0.00 0.00 100 1009.5
20260506034727 12 0.0 0.0 0.00 0.00 0.00 100 1009.3
20260506032721 12 0.0 0.0 0.00 0.00 0.00 100 1009.3
20260506030716 12 0.0 0.0 0.00 0.00 0.00 100 1009.6
20260506024712 12 0.0 0.0 0.00 0.00 0.00 100 1009.9
20260506022707 12 0.0 0.0 0.00 0.00 0.00 100 1010.3
20260506020702 12 0.0 0.0 0.00 0.00 0.00 100 1010.3
20260506014657 12 0.0 0.0 0.00 0.00 0.00 100 1010.2
20260506012652 12 0.0 0.0 0.00 0.00 0.00 100 1010.4
20260506010647 12 0.0 0.0 0.00 0.00 0.00 100 1010.6
20260506004642 12 0.0 0.0 0.00 0.00 0.00 100 1010.8
20260506002637 12 0.0 0.0 0.00 0.00 0.00 100 1011.0
20260506000632 12 0.0 0.0 0.00 0.00 0.00 100 1011.2
20260505234627 12 0.0 0.0 0.00 0.00 0.00 100 1011.3
20260505232622 12 0.0 0.0 0.00 0.00 0.00 100 1011.2
20260505224613 12 0.0 0.0 0.00 0.00 0.00 100 1011.5
20260505222606 12 0.0 0.0 0.00 0.00 0.00 100 1011.6
20260505220602 12 0.0 0.0 0.00 0.00 0.00 100 1011.7
20260505214556 12 0.0 0.0 0.00 0.00 0.00 100 1011.9
20260505212552 12 0.0 0.0 0.00 0.00 0.00 100 1012.1
20260505210547 12 0.0 0.0 0.00 0.00 0.00 100 1012.3
20260505204542 12 0.0 0.0 0.00 0.00 0.00 100 1012.4
20260505202537 12 0.0 0.0 0.00 0.00 0.00 100 1012.5
20260505200532 12 0.0 0.0 0.00 0.00 0.00 99 1012.4
20260505194527 12 0.0 0.0 0.00 0.00 0.00 97 1012.3
20260505192522 12 0.0 0.0 0.00 0.00 0.00 97 1012.1
20260505190517 12 0.0 0.0 0.00 0.00 0.00 98 1012.0
20260505184513 12 0.0 0.0 0.00 0.00 0.00 97 1011.9
20260505182508 13 0.0 0.0 0.00 0.00 0.00 96 1011.9
20260505180503 13 0.0 0.0 0.00 0.00 0.00 96 1011.9
20260505174458 13 0.0 0.0 0.00 0.00 0.00 97 1011.8
20260505172453 13 0.0 0.0 0.00 0.00 0.00 97 1011.9
20260505170448 13 0.0 0.0 0.00 0.00 0.00 96 1011.9
20260505164443 13 0.0 0.0 0.00 0.00 0.00 97 1011.9
20260505162439 13 0.0 0.0 0.00 0.00 0.00 97 1012.0
20260505160433 13 0.0 0.0 0.00 0.00 0.00 98 1012.1
20260505152424 13 0.0 0.0 0.00 0.00 0.00 99 1012.3
20260505140405 12 0.0 0.0 0.00 0.00 0.00 98 1012.5
20260505124345 12 0.0 0.0 0.00 0.00 0.00 97 1012.6
20260505122340 12 0.0 0.0 0.00 0.00 0.00 97 1012.7
20260505120336 13 0.0 0.0 0.00 0.00 0.00 97 1012.8